• In Uzbekistan
  • List of Countries
  • For 7 days
  • Water Temperature
  • Satellite Maps
  • Weather Map
  • Weather Widgets
  • user-avatar
    Login

    Hourly Weather Harare

    Today, 18 July, Wednesday

    Time Temperature Precipitation Wind Pressure Humidity
    00:00 +8°C° 0 mm 3 mps 644 mmHg 82%
    01:00 +7°C° 0 mm 3 mps 643 mmHg 85%
    02:00 +7°C° 0 mm 3 mps 643 mmHg 88%
    03:00 +7°C° 0 mm 3 mps 643 mmHg 89%
    04:00 +7°C° 0 mm 3 mps 643 mmHg 89%
    05:00 +7°C° 0 mm 3 mps 643 mmHg 90%
    06:00 +8°C° 0 mm 3 mps 643 mmHg 84%
    07:00 +8°C° 0 mm 3 mps 644 mmHg 78%
    08:00 +8°C° 0 mm 4 mps 644 mmHg 73%
    09:00 +11°C° 0 mm 4 mps 645 mmHg 65%
    10:00 +13°C° 0 mm 4 mps 645 mmHg 58%
    11:00 +15°C° 0 mm 4 mps 646 mmHg 50%
    12:00 +15°C° 0 mm 4 mps 645 mmHg 48%
    13:00 +17°C° 0 mm 3 mps 645 mmHg 46%
    14:00 +17°C° 0 mm 3 mps 645 mmHg 44%
    15:00 +16°C° 0 mm 3 mps 644 mmHg 47%
    16:00 +16°C° 0 mm 3 mps 644 mmHg 49%
    17:00 +15°C° 0 mm 2 mps 643 mmHg 52%
    18:00 +13°C° 0 mm 3 mps 643 mmHg 57%
    19:00 +11°C° 0 mm 3 mps 643 mmHg 61%
    20:00 +10°C° 0 mm 3 mps 643 mmHg 66%
    21:00 +10°C° 0 mm 3 mps 644 mmHg 66%
    22:00 +10°C° 0 mm 3 mps 644 mmHg 67%
    23:00 +10°C° 0 mm 3 mps 645 mmHg 67%

    Tomorrow, 19 July, Thursday

    Time Temperature Precipitation Wind Pressure Humidity
    00:00 +9°C° 0 mm 3 mps 644 mmHg 72%
    01:00 +8°C° 0 mm 3 mps 644 mmHg 77%
    02:00 +7°C° 0 mm 2 mps 643 mmHg 81%
    03:00 +7°C° 0 mm 2 mps 643 mmHg 83%
    04:00 +6°C° 0 mm 2 mps 643 mmHg 85%
    05:00 +6°C° 0 mm 2 mps 642 mmHg 87%
    06:00 +7°C° 0 mm 3 mps 643 mmHg 83%
    07:00 +8°C° 0 mm 3 mps 643 mmHg 78%
    08:00 +9°C° 0 mm 3 mps 644 mmHg 73%
    09:00 +11°C° 0 mm 3 mps 645 mmHg 64%
    10:00 +13°C° 0 mm 4 mps 645 mmHg 55%
    11:00 +15°C° 0 mm 4 mps 646 mmHg 46%
    12:00 +17°C° 0 mm 3 mps 645 mmHg 43%
    13:00 +18°C° 0 mm 3 mps 645 mmHg 40%
    14:00 +19°C° 0 mm 3 mps 644 mmHg 37%
    15:00 +18°C° 0 mm 3 mps 644 mmHg 41%
    16:00 +17°C° 0 mm 3 mps 643 mmHg 44%
    17:00 +16°C° 0 mm 3 mps 643 mmHg 47%
    18:00 +14°C° 0 mm 3 mps 643 mmHg 52%
    19:00 +14°C° 0 mm 2 mps 643 mmHg 57%
    20:00 +12°C° 0 mm 2 mps 643 mmHg 61%
    21:00 +12°C° 0 mm 2 mps 643 mmHg 62%
    22:00 +12°C° 0 mm 2 mps 643 mmHg 63%
    23:00 +10°C° 0 mm 2 mps 643 mmHg 64%

    Day after tomorrow, 20 July, Friday

    Time Temperature Precipitation Wind Pressure Humidity
    00:00 +9°C° 0 mm 2 mps 643 mmHg 67%
    01:00 +9°C° 0 mm 2 mps 643 mmHg 71%
    02:00 +8°C° 0 mm 2 mps 642 mmHg 74%
    03:00 +7°C° 0 mm 2 mps 642 mmHg 76%
    04:00 +7°C° 0 mm 2 mps 642 mmHg 77%
    05:00 +7°C° 0 mm 2 mps 641 mmHg 79%
    06:00 +8°C° 0 mm 3 mps 642 mmHg 75%
    07:00 +9°C° 0 mm 3 mps 643 mmHg 70%
    08:00 +10°C° 0 mm 3 mps 643 mmHg 66%
    09:00 +12°C° 0 mm 3 mps 644 mmHg 58%
    10:00 +16°C° 0 mm 3 mps 645 mmHg 50%
    11:00 +18°C° 0 mm 3 mps 646 mmHg 42%
    12:00 +19°C° 0 mm 3 mps 645 mmHg 40%
    13:00 +19°C° 0 mm 3 mps 644 mmHg 38%
    14:00 +20°C° 0 mm 3 mps 644 mmHg 36%
    15:00 +19°C° 0 mm 3 mps 643 mmHg 39%
    16:00 +18°C° 0 mm 3 mps 643 mmHg 42%
    17:00 +17°C° 0 mm 3 mps 642 mmHg 46%
    18:00 +14°C° 0 mm 3 mps 642 mmHg 52%
    19:00 +13°C° 0 mm 3 mps 643 mmHg 57%
    20:00 +12°C° 0 mm 3 mps 643 mmHg 63%
    21:00 +12°C° 0 mm 2 mps 643 mmHg 67%
    22:00 +12°C° 0 mm 2 mps 643 mmHg 70%
    23:00 +10°C° 0 mm 2 mps 643 mmHg 74%

    21 July, Saturday

    Time Temperature Precipitation Wind Pressure Humidity
    00:00 +9°C° 0 mm 2 mps 643 mmHg 78%
    01:00 +9°C° 0 mm 2 mps 642 mmHg 82%
    02:00 +8°C° 0 mm 2 mps 642 mmHg 86%
    03:00 +8°C° 0 mm 2 mps 642 mmHg 88%
    04:00 +7°C° 0 mm 2 mps 641 mmHg 89%
    05:00 +7°C° 0 mm 2 mps 641 mmHg 91%
    06:00 +8°C° 0 mm 2 mps 642 mmHg 84%
    07:00 +9°C° 0 mm 2 mps 643 mmHg 78%
    08:00 +11°C° 0 mm 3 mps 644 mmHg 71%
    09:00 +13°C° 0 mm 3 mps 644 mmHg 60%
    10:00 +16°C° 0 mm 3 mps 645 mmHg 50%
    11:00 +19°C° 0 mm 3 mps 646 mmHg 39%
    12:00 +19°C° 0 mm 3 mps 645 mmHg 36%
    13:00 +20°C° 0 mm 3 mps 645 mmHg 33%
    14:00 +21°C° 0 mm 3 mps 644 mmHg 30%
    15:00 +21°C° 0 mm 3 mps 644 mmHg 33%
    16:00 +20°C° 0 mm 3 mps 644 mmHg 36%
    17:00 +19°C° 0 mm 2 mps 643 mmHg 39%
    18:00 +17°C° 0 mm 2 mps 643 mmHg 47%
    19:00 +15°C° 0 mm 2 mps 643 mmHg 54%
    20:00 +14°C° 0 mm 2 mps 644 mmHg 62%
    21:00 +13°C° 0 mm 2 mps 644 mmHg 65%
    22:00 +13°C° 0 mm 2 mps 644 mmHg 68%
    23:00 +12°C° 0 mm 1 mps 644 mmHg 71%

    22 July, Sunday

    Time Temperature Precipitation Wind Pressure Humidity
    00:00 +12°C° 0 mm 1 mps 643 mmHg 75%
    01:00 +11°C° 0 mm 1 mps 643 mmHg 79%
    02:00 +10°C° 0 mm 1 mps 642 mmHg 83%
    03:00 +10°C° 0 mm 1 mps 642 mmHg 85%
    04:00 +9°C° 0 mm 1 mps 642 mmHg 87%
    05:00 +9°C° 0 mm 1 mps 642 mmHg 89%
    06:00 +9°C° 0 mm 2 mps 643 mmHg 83%
    07:00 +10°C° 0 mm 2 mps 644 mmHg 78%
    08:00 +13°C° 0 mm 2 mps 645 mmHg 72%
    09:00 +15°C° 0 mm 2 mps 645 mmHg 63%
    10:00 +17°C° 0 mm 3 mps 646 mmHg 54%
    11:00 +19°C° 0 mm 3 mps 646 mmHg 45%
    12:00 +20°C° 0 mm 3 mps 646 mmHg 42%
    13:00 +21°C° 0 mm 3 mps 645 mmHg 39%
    14:00 +22°C° 0 mm 3 mps 645 mmHg 36%
    15:00 +21°C° 0 mm 3 mps 644 mmHg 38%
    16:00 +20°C° 0 mm 3 mps 644 mmHg 40%
    17:00 +20°C° 0 mm 3 mps 644 mmHg 42%
    18:00 +18°C° 0 mm 3 mps 644 mmHg 47%
    19:00 +17°C° 0 mm 3 mps 644 mmHg 52%
    20:00 +14°C° 0 mm 3 mps 644 mmHg 57%
    21:00 +14°C° 0 mm 2 mps 644 mmHg 62%
    22:00 +13°C° 0 mm 2 mps 644 mmHg 67%
    23:00 +12°C° 0 mm 2 mps 643 mmHg 72%

    23 July, Monday

    Time Temperature Precipitation Wind Pressure Humidity
    00:00 +12°C° 0 mm 1 mps 643 mmHg 75%
    01:00 +11°C° 0 mm 1 mps 643 mmHg 79%
    02:00 +10°C° 0 mm 1 mps 642 mmHg 83%
    03:00 +10°C° 0 mm 1 mps 642 mmHg 86%
    04:00 +10°C° 0 mm 1 mps 642 mmHg 88%
    05:00 +9°C° 0 mm 1 mps 642 mmHg 90%
    06:00 +9°C° 0 mm 2 mps 643 mmHg 84%
    07:00 +12°C° 0 mm 2 mps 644 mmHg 77%
    08:00 +13°C° 0 mm 2 mps 644 mmHg 71%
    09:00 +15°C° 0 mm 2 mps 645 mmHg 60%
    10:00 +18°C° 0 mm 2 mps 645 mmHg 48%
    11:00 +20°C° 0 mm 2 mps 646 mmHg 37%
    12:00 +21°C° 0 mm 2 mps 645 mmHg 34%
    13:00 +23°C° 0 mm 2 mps 645 mmHg 31%
    14:00 +24°C° 0 mm 2 mps 644 mmHg 28%
    15:00 +23°C° 0 mm 2 mps 644 mmHg 30%
    16:00 +21°C° 0 mm 2 mps 644 mmHg 32%
    17:00 +20°C° 0 mm 2 mps 643 mmHg 35%
    18:00 +18°C° 0 mm 2 mps 643 mmHg 41%
    19:00 +16°C° 0 mm 2 mps 643 mmHg 48%
    20:00 +14°C° 0 mm 2 mps 643 mmHg 55%
    21:00 +13°C° 0 mm 2 mps 643 mmHg 59%
    22:00 +13°C° 0 mm 2 mps 643 mmHg 63%
    23:00 +12°C° 0 mm 1 mps 643 mmHg 68%
    Show more